Location: Taupo
(38.6830°S, 176.0830°E)
Time: 09:05:53
(UTC+13:00)

Cosmos 540 Rocket - Pass Details

Date: 24 January 2019
Orbit: 739 x 754 km, 74.1° (Epoch: 15 October)

Event Time Altitude Azimuth Distance (km) Brightness Sun altitude
Rises 22:11:15 0° 194° (SSW) 3,243 7.7 -16.1°
Reaches altitude 10° 22:13:43 10° 188° (S) 2,310 6.7 -16.4°
Maximum altitude 22:18:48 49° 112° (ESE) 972 3.8 -17.1°
Enters shadow 22:20:59 31° 55° (NE) 1,322 4.2 -17.4°
